Location: Waco, TX
(31.5480°N, 97.1670°W)
Time: 23:34:37
(UTC-06:00)

ISS - Pass Details

Date: 15 November 2018
Orbit: 401 x 409 km, 51.6° (Epoch: 21 November)

Event Time Altitude Azimuth Distance (km) Brightness Sun altitude
Rises 20:35:14 0° 195° (SSW) 2,295 - -39.5°
Reaches altitude 10° 20:37:38 10° 178° (S) 1,440 - -40.0°
Maximum altitude 20:40:06 20° 128° (SE) 978 - -40.5°
Drops below altitude 10° 20:42:35 10° 78° (ENE) 1,447 - -41.1°
Sets 20:44:59 0° 61° (ENE) 2,308 - -41.6°
